Location: Lecco
(45.8566°N, 9.3977°E)
Time: 04:54:57
(UTC+02:00)

Transit 4A - Pass Details

Date: 17 August 2020
Orbit: 863 x 982 km, 66.8° (Epoch: 23 September)

Event Time Altitude Azimuth Distance (km) Brightness Sun altitude
Rises 19:17:04 0° 315° (NW) 3,673 11.9 11.0°
Reaches altitude 10° 19:20:19 10° 300° (WNW) 2,731 12.0 10.4°
Maximum altitude 19:24:44 20° 256° (WSW) 2,098 11.2 9.6°
Drops below altitude 10° 19:29:09 10° 211° (SSW) 2,727 10.7 8.9°
Sets 19:32:24 0° 196° (SSW) 3,664 11.1 8.3°
